Location: Unspecified
(42.9300°N, 71.1866°W)
Time: 22:00:25
(UTC-05:00)

Genesis I - Visible Passes

Search period start: 23 January 2017 00:00
Search period end: 02 February 2017 00:00
Orbit: 510 x 522 km, 64.5° (Epoch: 23 January)

Date Brightness Start Highest point End Pass type
(mag) Time Alt. Az. Time Alt. Az. Time Alt. Az.
23 Jan 5.6 05:41:35 10° SW 05:41:35 10° SW 05:41:43 10° SW visible
23 Jan 6.1 19:26:48 10° SSW 19:26:49 10° SSW 19:26:49 10° SSW visible
24 Jan 5.2 19:11:11 10° SSW 19:12:42 22° SSW 19:12:42 22° SSW visible
25 Jan 3.8 18:55:36 10° SSW 18:58:31 48° SSW 18:58:31 48° SSW visible
26 Jan 3.0 18:39:59 10° SSW 18:43:54 78° SE 18:44:15 71° ENE visible
27 Jan 3.1 18:24:23 10° SSW 18:28:19 81° ESE 18:29:52 35° NE visible
27 Jan 6.4 20:04:22 10° WNW 20:04:54 12° WNW 20:04:54 12° WNW visible
28 Jan 3.1 18:08:47 10° SSW 18:12:44 83° ESE 18:15:23 20° NE visible
28 Jan 6.1 19:48:51 10° WNW 19:50:25 14° NW 19:50:25 14° NW visible
29 Jan 3.1 17:53:11 10° SSW 17:57:07 85° SE 18:00:49 12° NE visible
29 Jan 5.9 19:33:20 10° WNW 19:35:22 14° NW 19:35:51 13° NNW visible
30 Jan 3.2 17:37:35 10° SSW 17:41:31 88° ESE 17:45:29 10° NE visible
30 Jan 5.9 19:17:49 10° WNW 19:19:48 13° NW 19:21:10 12° NNW visible
31 Jan 3.2 17:21:59 10° SSW 17:25:55 90° N 17:29:53 10° NE visible
31 Jan 6.0 19:02:18 10° WNW 19:04:12 13° NW 19:06:07 10° N visible
01 Feb 6.0 18:46:47 10° WNW 18:48:37 13° NW 18:50:27 10° N visible
